GFSGBSN_925_rhum_054.txt.gz
RH
97 94 94 92 89 88 85 88 85 84 86 84 94 76 84 96 89 78 86 86 88 87 87 86 84 82 74 61 57 72 75 76 85 90 90 84 59 49 50 49 65 70 70 57 46 63 55
99 97 94 93 86 87 88 83 87 91 89 89 89 90 76 89 92 95 89 89 89 84 88 88 87 77 69 69 60 66 64 69 80 83 83 89 49 44 42 47 54 50 66 65 54 66 68
98 99 94 94 92 84 88 85 88 86 88 88 90 89 87 81 92 89 94 91 94 86 87 84 83 70 66 53 60 60 67 65 79 77 77 87 61 49 40 50 45 51 64 65 63 57 63
99 99 97 95 92 89 87 86 93 91 92 92 94 82 87 79 89 96 97 94 96 69 69 86 75 66 54 55 60 67 65 65 68 74 78 86 77 51 49 46 49 52 57 78 59 64 62
99 98 96 95 94 87 91 91 88 81 94 94 91 84 83 81 81 83 91 95 87 73 70 83 69 63 55 58 68 65 69 77 70 71 71 85 74 57 58 53 58 57 60 65 85 56 66
100 99 99 96 96 90 88 89 97 94 91 87 88 86 77 80 79 81 88 78 76 68 63 72 68 61 43 52 80 72 68 79 71 60 77 82 85 62 50 50 55 48 46 58 82 75 68
100 99 99 93 95 94 90 87 95 94 85 91 81 80 74 80 79 86 89 70 62 58 56 58 58 56 48 58 68 61 67 89 74 59 74 96 96 79 54 42 34 37 45 58 73 70 77
100 100 98 91 96 93 89 90 92 89 89 86 86 78 75 80 84 94 92 60 55 63 52 58 59 58 61 76 64 61 74 83 86 80 83 93 99 50 44 48 48 50 48 48 50 65 77
100 100 97 83 94 91 91 91 90 88 95 79 80 78 76 78 87 92 83 64 69 71 67 64 62 69 72 72 67 70 76 88 85 79 94 95 86 55 55 56 53 47 46 48 46 57 58
100 100 96 78 90 93 89 91 91 92 84 80 79 77 80 83 88 90 71 67 72 72 94 79 63 66 67 67 70 76 80 86 86 82 95 95 74 57 51 53 43 56 44 48 51 49 50
99 99 97 71 89 84 92 91 94 91 85 82 81 84 85 83 85 77 80 74 70 70 86 90 73 68 64 66 64 67 71 85 76 80 84 97 89 63 60 54 42 53 48 46 44 42 50
100 100 90 66 74 86 89 92 95 90 88 84 87 89 88 88 84 87 77 72 80 92 91 98 69 67 69 66 71 70 78 66 61 72 77 93 75 65 56 54 48 48 49 50 52 48 67
100 100 86 64 68 84 86 94 93 91 85 86 93 92 88 91 79 80 72 71 96 89 98 87 67 71 68 78 93 96 81 91 97 99 100 96 93 72 59 59 50 44 46 78 75 80 59
100 100 76 58 55 86 78 89 92 91 92 96 98 92 93 91 81 74 80 68 89 95 95 75 64 68 65 71 80 83 85 99 88 80 99 100 99 84 66 56 57 52 37 52 62 62 49
100 98 67 50 50 80 55 92 94 95 91 97 97 89 95 88 78 80 71 93 87 94 87 67 68 70 61 61 59 64 80 70 73 75 99 92 97 76 71 59 48 64 68 42 59 58 57
100 94 60 45 50 64 45 92 97 98 91 90 95 86 90 86 83 85 74 91 89 69 76 57 85 66 62 60 55 62 66 66 76 64 59 68 99 72 70 58 54 52 43 60 69 74 53
99 81 52 46 47 48 44 71 92 94 67 85 86 75 90 86 86 80 93 92 72 61 72 93 98 90 62 52 49 55 61 67 65 69 56 57 60 95 67 67 69 60 61 58 50 56 51
99 75 48 47 41 45 44 51 70 58 77 89 81 88 92 88 94 81 94 74 65 64 65 66 81 70 62 52 48 63 64 69 59 58 58 56 62 89 98 77 59 54 49 46 57 69 58
99 70 46 45 42 44 47 48 54 46 69 82 78 90 95 98 84 73 67 67 66 59 59 56 58 82 78 75 72 71 71 62 63 58 57 53 72 96 100 86 72 71 61 52 51 61 68
98 70 49 43 44 43 50 49 49 43 48 80 77 94 94 95 87 82 76 71 68 62 62 55 53 47 62 63 60 73 75 69 62 58 63 53 60 67 59 66 62 77 67 63 59 73 54
94 70 54 47 46 47 50 51 46 40 69 75 68 74 76 90 82 73 75 76 68 66 56 58 59 60 51 62 65 69 68 73 67 70 60 55 87 77 56 60 68 66 64 67 86 64 65
96 72 54 47 52 50 52 53 46 42 75 64 65 75 74 66 63 73 73 74 73 76 74 67 65 66 54 60 64 65 66 69 73 70 73 61 90 70 76 62 68 72 62 63 64 61 62
96 74 54 59 49 50 58 53 45 44 54 66 87 85 59 60 60 69 64 62 70 73 68 72 69 61 73 83 78 69 57 51 53 69 82 78 77 80 73 63 60 63 50 52 56 60 60
97 82 70 60 51 55 61 53 46 45 44 48 77 71 50 56 54 56 56 60 71 74 75 68 62 61 72 60 72 49 49 51 51 58 54 66 67 72 77 62 63 44 40 44 48 46 44
92 93 86 58 54 60 64 53 52 40 47 49 59 54 46 54 51 58 61 64 64 66 76 70 56 54 59 60 56 60 61 59 61 59 54 49 55 75 73 61 47 54 52 50 51 55 46
97 92 91 57 57 71 64 58 54 45 50 49 62 49 49 48 64 69 56 61 82 72 72 60 46 58 67 64 59 68 69 62 71 69 58 54 50 54 65 75 62 42 42 45 46 59 56
96 94 94 55 62 72 67 64 57 49 47 49 67 58 57 62 71 62 56 56 55 57 66 57 59 68 63 69 72 71 70 60 67 64 69 67 69 74 70 69 50 51 48 48 65 69 57
77 97 90 58 78 70 66 63 57 53 58 55 72 60 60 65 74 74 71 60 56 52 68 57 70 69 70 78 72 73 65 65 64 61 64 64 66 66 66 69 69 48 53 61 63 44 42
85 94 74 61 90 68 69 64 56 54 55 51 78 59 54 62 69 77 80 79 74 66 56 69 75 79 77 78 72 73 80 74 71 61 58 72 64 63 61 61 58 44 57 49 49 54 51

GFSGBSN_925_rhum_057.txt.gz
RH
98 100 98 96 93 88 89 89 85 92 92 90 86 90 89 80 87 92 89 86 90 85 86 87 85 79 70 54 46 68 72 77 82 76 88 78 63 57 50 60 74 91 49 46 68 49 45
96 98 99 98 95 93 88 91 87 93 88 87 91 92 89 88 79 91 96 89 89 92 82 85 84 71 65 57 51 53 62 68 85 73 88 79 59 42 39 46 77 66 59 51 46 50 51
96 98 99 99 96 95 91 91 91 96 92 90 94 93 88 90 83 88 95 96 90 94 81 88 80 65 54 54 49 52 57 64 80 78 76 81 63 49 40 37 44 55 70 60 54 47 46
99 99 98 99 92 94 91 92 95 89 90 91 92 94 89 90 86 83 96 96 95 94 71 88 72 57 53 49 51 55 58 58 67 77 78 81 88 75 41 32 45 73 83 87 56 50 43
100 100 100 100 95 90 93 91 91 97 95 91 88 94 92 91 86 77 93 95 95 82 75 79 63 50 50 55 61 68 64 61 65 74 80 85 96 60 49 49 56 50 75 71 54 44 48
95 100 100 100 97 86 95 92 89 94 94 87 92 91 83 90 82 73 82 83 80 68 61 58 50 57 38 52 79 74 63 67 69 71 82 95 89 60 52 54 63 45 32 40 52 56 54
91 96 100 100 97 86 95 92 91 95 90 90 92 90 79 87 83 76 85 70 62 60 48 47 45 44 39 52 72 75 72 90 75 75 96 90 98 71 42 36 27 27 27 38 38 51 63
88 100 100 100 96 82 95 94 93 93 88 96 91 83 79 80 82 86 87 56 50 62 48 47 46 46 45 62 67 74 71 89 88 83 80 94 98 44 33 32 34 26 30 43 50 56 64
90 99 100 100 95 92 93 93 94 91 93 86 82 78 78 82 82 86 69 52 71 65 59 58 50 53 55 63 58 76 74 89 68 63 82 95 88 66 39 44 42 35 31 33 51 62 58
92 100 100 100 96 82 90 91 93 94 90 78 80 77 78 78 86 73 60 65 74 68 88 64 54 59 56 54 70 70 73 84 89 76 70 80 84 82 49 44 38 42 29 34 40 53 56
94 100 100 99 87 69 73 93 94 94 88 80 82 80 80 80 78 65 70 75 71 62 94 71 64 52 52 60 59 83 67 86 71 74 68 92 93 78 53 43 33 40 37 38 39 42 30
94 100 99 96 81 60 68 92 95 92 83 84 85 84 82 83 83 77 78 71 67 92 91 94 56 56 56 56 62 72 88 86 43 62 87 92 86 72 42 36 37 43 41 40 38 36 56
98 100 100 96 74 52 68 90 94 94 89 88 87 87 89 83 68 79 74 63 97 93 94 78 56 53 52 82 83 85 89 94 73 91 100 98 95 78 56 54 47 40 44 65 63 74 58
99 100 99 97 66 48 69 85 93 92 93 89 88 88 88 92 84 78 70 70 90 79 89 58 52 55 60 72 90 69 96 94 66 50 93 100 99 78 56 43 48 47 37 48 53 52 43
99 100 100 98 57 47 60 74 92 96 90 89 92 88 83 89 82 84 66 98 91 94 59 50 53 57 55 58 63 66 96 86 58 59 85 83 100 80 58 52 42 47 53 38 49 39 44
100 100 99 94 58 48 51 66 84 95 87 84 82 74 74 78 84 79 78 88 77 76 68 43 63 47 54 54 53 55 80 66 66 65 64 64 94 79 70 58 48 45 38 50 60 66 41
100 100 99 94 57 48 45 58 70 91 70 82 77 72 85 87 90 77 89 80 69 60 57 65 85 61 44 44 44 48 64 62 59 62 53 51 50 87 78 68 56 56 58 50 43 50 52
100 100 99 86 67 45 44 52 56 66 77 83 70 78 92 90 93 65 83 66 65 60 62 78 73 62 41 36 42 48 59 58 49 50 60 48 57 75 70 66 53 48 43 42 52 62 43
100 100 100 88 60 42 44 48 48 52 78 73 69 70 96 88 88 64 60 59 56 56 56 56 71 67 59 49 54 55 58 54 54 51 59 48 66 97 92 62 53 58 48 44 39 55 60
100 100 97 89 60 43 44 48 44 47 74 76 64 86 86 86 75 62 58 57 60 55 53 48 47 54 55 54 53 62 64 61 54 52 61 49 50 60 62 60 45 60 50 49 50 69 50
100 100 97 96 62 47 46 48 43 45 40 72 58 57 58 88 71 61 62 57 53 57 50 46 49 49 48 56 57 63 63 65 60 64 52 49 80 74 50 56 60 59 49 48 67 57 58
100 100 98 95 83 55 50 47 43 44 61 66 52 55 60 55 56 60 69 61 54 63 58 53 52 50 44 49 56 59 62 64 65 58 56 53 84 67 82 53 58 64 52 50 51 52 52
100 100 99 93 94 79 51 47 43 53 69 51 61 63 51 59 57 53 54 57 61 59 61 58 51 50 61 71 60 51 46 48 49 58 62 62 69 82 74 54 52 58 44 45 49 46 48
100 100 98 94 95 58 57 46 43 49 60 46 57 51 46 57 52 50 52 56 62 65 63 58 51 52 62 52 51 40 42 44 46 51 51 65 68 68 75 59 67 44 37 40 44 40 40
100 100 99 95 95 57 58 49 43 46 54 54 68 48 39 50 48 54 54 60 61 63 66 59 54 52 54 56 52 58 56 53 53 49 46 44 50 65 71 53 39 51 46 45 48 62 52
99 99 100 88 77 57 59 54 45 42 50 65 68 50 39 47 54 48 56 56 61 62 60 56 42 51 61 56 54 67 72 58 64 63 50 48 44 49 54 60 51 49 43 42 43 58 53
100 100 98 94 68 58 55 54 47 50 52 67 66 55 43 54 57 49 53 59 58 59 55 51 53 56 54 58 64 58 61 49 66 76 68 62 59 69 66 62 46 49 46 44 67 65 46
100 98 97 71 85 63 56 56 52 43 47 64 77 59 48 56 66 58 55 49 50 47 54 54 59 60 60 70 70 64 56 51 53 52 55 60 62 61 54 67 65 42 49 58 55 48 49
100 97 97 80 90 86 55 57 48 47 47 62 70 66 59 53 67 68 69 70 65 61 49 60 64 66 66 67 60 64 66 60 51 57 50 62 52 54 53 57 48 40 44 45 45 51 53

GFSGBSN_925_rhum_060.txt.gz
RH
99 97 98 99 98 97 93 90 92 91 93 91 87 94 94 88 88 79 86 95 87 88 88 83 82 85 75 58 53 65 62 68 84 83 85 74 74 77 72 62 82 77 63 73 71 65 65
99 98 97 99 99 95 96 94 91 95 94 94 88 97 94 89 90 85 86 93 94 86 94 81 84 72 69 71 48 49 54 61 72 82 80 78 78 62 53 57 78 73 79 72 80 67 70
100 100 100 99 100 99 97 96 94 95 95 94 88 89 93 91 89 87 83 95 95 91 91 79 84 69 52 54 47 45 51 57 70 76 77 79 82 92 53 49 54 69 70 79 70 68 56
94 94 100 100 100 100 91 93 95 93 96 95 92 89 94 94 91 80 80 94 95 95 91 78 83 65 56 48 51 49 52 53 62 77 88 85 91 86 76 42 67 76 80 95 78 82 68
87 90 89 98 100 98 95 93 95 93 94 96 88 90 94 92 91 78 81 92 92 94 89 77 74 56 51 48 57 68 63 58 61 70 73 80 95 81 60 64 80 81 94 97 83 54 57
83 87 88 93 100 100 96 93 96 92 94 92 89 92 89 82 83 80 81 74 82 79 67 60 49 54 48 50 72 75 68 62 66 69 92 87 94 82 72 66 87 92 80 80 86 61 51
81 85 84 94 100 100 96 92 96 91 94 88 96 92 77 78 82 84 83 80 74 72 52 46 42 41 36 58 76 67 71 72 74 81 97 90 97 94 71 57 45 48 56 67 64 62 54
76 87 84 95 100 100 96 95 96 92 92 94 91 80 80 87 80 83 84 70 58 63 59 42 42 41 39 52 71 66 70 80 92 98 94 98 100 76 64 46 38 34 42 59 53 56 60
81 86 86 100 100 99 92 96 95 94 93 89 80 79 79 75 76 81 78 58 67 61 74 54 44 49 49 60 81 82 71 84 92 96 98 99 86 79 64 43 51 43 36 67 65 66 57
88 82 89 99 100 100 88 95 84 94 93 84 79 79 78 78 84 75 62 60 70 65 99 72 56 53 51 51 88 66 82 89 92 97 76 92 77 81 73 56 41 42 28 43 66 73 82
98 85 88 100 99 100 89 87 84 95 90 84 83 86 80 77 86 63 71 70 67 66 96 59 55 46 50 59 64 74 74 80 71 69 60 95 90 94 79 44 37 45 40 54 64 59 53
99 89 88 100 100 98 85 80 90 94 91 90 84 84 82 80 79 74 72 69 67 97 95 82 50 51 54 52 63 76 88 79 56 71 77 87 90 88 78 42 40 38 43 42 42 46 77
93 97 88 100 100 99 87 72 90 82 92 88 88 84 85 79 78 75 71 67 99 91 85 69 54 50 58 74 74 87 84 84 79 93 99 97 95 79 72 58 46 41 54 88 89 88 82
96 100 97 100 100 99 83 87 90 84 89 80 86 86 83 84 80 74 71 90 95 66 87 48 47 51 63 64 75 83 90 80 58 54 100 99 98 90 63 51 59 50 49 78 67 81 67
100 96 99 99 100 98 80 87 90 85 79 82 86 82 79 80 81 81 93 100 90 84 51 48 49 60 63 56 57 76 97 67 56 60 86 100 100 86 65 52 54 56 72 41 63 42 75
99 97 100 100 100 96 83 92 93 78 74 81 83 80 71 72 77 83 98 87 72 72 64 40 59 48 63 55 57 66 85 62 66 58 60 62 99 81 68 60 48 55 40 62 84 69 45
99 98 100 100 100 98 78 96 93 77 69 81 87 83 87 87 87 92 94 70 66 63 52 61 74 53 44 47 44 49 75 58 57 63 55 52 70 90 76 80 64 58 68 56 55 70 84
98 98 100 100 100 99 90 95 85 76 69 88 73 94 87 83 96 85 83 61 65 65 67 70 74 65 44 38 44 50 71 59 50 53 58 56 63 93 90 76 55 59 54 48 82 74 62
99 96 100 100 100 98 82 95 58 56 74 79 78 79 88 85 96 74 61 60 53 57 62 71 67 63 56 43 56 53 61 53 52 56 62 50 76 96 89 65 58 65 53 50 52 66 73
99 95 100 100 100 98 83 95 48 45 70 77 72 85 82 86 76 84 61 57 62 55 51 46 55 56 53 48 52 58 68 57 54 53 60 60 58 78 90 70 60 67 56 52 59 86 66
97 99 99 100 99 97 88 95 47 44 78 91 73 70 64 93 80 67 61 51 56 59 49 45 50 49 48 57 56 56 60 62 59 63 54 58 80 75 55 58 68 61 56 54 71 66 70
98 100 99 100 99 98 88 90 50 43 77 89 70 67 64 60 55 61 63 57 53 61 62 51 51 48 44 60 62 62 60 58 60 58 55 57 90 72 84 52 56 65 56 50 51 55 56
99 96 98 100 98 98 87 92 52 45 65 72 59 58 61 61 60 60 62 57 58 61 61 56 49 56 68 73 56 53 48 50 51 58 60 63 82 90 77 53 54 70 51 55 52 47 48
98 100 100 100 97 94 96 66 50 42 51 50 51 53 64 68 58 54 52 55 63 62 64 56 53 58 64 52 53 43 45 48 50 54 52 67 72 90 88 72 84 49 42 41 44 47 51
98 99 100 98 99 90 84 54 46 44 58 53 55 60 59 60 55 52 56 62 68 61 62 60 57 55 54 57 61 66 63 58 56 51 47 48 68 85 94 83 54 57 50 49 54 70 59
96 93 100 99 94 96 92 52 45 55 72 59 58 50 62 57 63 49 60 61 72 68 64 57 48 52 60 65 64 75 75 58 69 68 49 49 49 66 64 74 62 60 51 45 44 85 52
82 97 100 100 91 98 89 52 44 52 82 57 54 51 52 66 64 59 65 68 62 58 63 57 55 62 57 72 75 68 77 52 73 74 72 67 64 78 78 79 64 49 47 46 76 77 51
87 100 98 98 90 98 87 53 42 49 58 54 59 56 54 69 73 59 58 60 58 55 66 60 68 66 69 77 76 72 67 59 59 56 56 71 74 76 72 84 80 48 50 64 63 54 58
86 100 100 96 91 87 97 57 49 56 62 50 60 59 50 72 75 64 64 65 65 61 66 66 67 69 75 70 68 70 70 65 60 71 52 71 71 80 66 74 52 42 44 50 58 67 70

GFSGBSN_925_rhum_063.txt.gz
RH
97 99 100 98 97 98 98 97 96 95 94 94 95 90 96 97 90 89 86 84 92 92 87 94 80 83 76 79 66 60 62 65 76 73 72 83 90 85 85 72 79 80 88 66 71 70 65
92 94 98 100 100 100 100 98 92 94 95 95 94 90 91 94 92 91 87 82 94 96 89 92 80 81 78 85 49 54 51 55 68 76 73 81 90 82 79 68 82 84 84 85 77 84 70
82 81 88 93 98 100 100 99 92 94 96 95 94 96 90 95 94 89 86 81 93 95 94 89 80 81 70 69 48 47 49 54 59 70 79 88 93 90 88 75 72 80 89 87 93 88 88
75 82 80 88 91 94 100 100 94 93 94 85 96 93 92 91 92 87 77 82 91 95 95 89 80 84 77 49 46 52 53 58 60 73 75 89 92 90 94 67 69 86 92 94 80 83 70
88 70 73 83 88 93 100 100 96 91 96 83 97 90 94 76 73 72 76 82 88 90 90 88 75 78 66 49 58 62 65 60 63 78 83 81 82 92 86 84 91 84 99 94 81 86 84
99 90 72 77 86 93 100 100 98 90 96 91 91 94 87 74 75 71 74 75 76 88 62 79 65 62 53 59 63 67 69 66 66 78 79 80 89 94 89 89 97 94 95 87 81 86 74
97 100 92 78 90 88 100 100 95 93 94 92 93 92 77 78 78 88 68 78 83 80 70 57 48 48 41 65 69 67 68 70 74 78 95 90 96 100 84 68 65 65 72 70 74 72 92
98 97 99 89 87 93 99 100 92 96 92 93 95 78 80 81 88 81 76 89 66 66 84 43 48 45 41 53 82 68 65 79 90 96 94 96 96 82 70 66 61 62 66 64 57 59 78
98 97 97 99 88 99 99 100 93 95 91 96 91 80 78 78 77 77 77 78 62 64 86 59 48 55 53 61 77 81 70 83 94 96 95 90 79 81 77 73 64 66 65 62 67 67 68
92 98 98 98 98 100 100 100 92 88 88 96 86 80 78 76 80 75 79 67 59 67 98 74 62 57 57 77 85 74 77 78 90 99 96 96 79 80 85 75 59 61 51 57 68 86 92
86 90 92 99 100 100 100 99 91 82 88 88 87 84 79 79 82 73 70 66 65 70 96 58 65 45 55 66 72 88 87 94 95 94 85 98 90 91 86 66 64 72 46 63 77 71 77
86 89 89 99 95 100 100 100 89 80 85 89 86 82 82 77 72 73 71 67 68 92 90 84 58 57 59 62 80 84 91 88 68 73 86 95 89 90 92 68 54 50 77 80 69 66 78
88 92 96 89 94 100 100 100 82 79 87 90 86 82 82 74 80 74 71 74 98 90 77 72 64 53 70 81 79 74 84 83 88 88 99 98 97 81 73 61 51 52 63 98 96 86 78
94 93 98 100 99 100 100 98 86 75 95 79 84 82 77 83 75 72 74 92 90 67 90 56 50 54 73 70 79 80 86 84 61 84 100 99 98 91 80 61 60 52 53 81 85 93 74
100 92 99 85 98 100 100 98 86 90 82 82 85 84 80 81 79 80 93 99 94 73 60 56 55 70 69 61 70 88 78 79 72 65 90 100 100 82 77 67 55 54 75 46 67 54 81
92 98 99 76 99 100 100 98 86 94 70 84 82 80 77 72 79 85 97 88 82 72 71 52 69 57 70 62 65 72 82 65 73 66 62 78 98 88 70 60 49 54 43 67 85 63 58
98 100 93 94 99 100 99 97 84 93 71 85 77 92 83 78 89 96 99 79 71 67 66 73 72 62 54 56 58 69 87 62 61 66 64 60 78 95 69 85 75 66 67 60 64 76 84
93 97 94 97 99 100 98 97 76 96 80 97 86 98 81 90 97 93 92 73 55 67 67 73 77 73 68 43 58 73 82 68 53 58 61 64 76 92 86 80 69 65 60 54 82 70 73
79 98 99 99 100 100 98 97 86 93 90 88 95 97 85 84 97 80 66 67 60 64 68 73 70 65 60 62 64 66 69 58 55 63 70 60 78 96 95 74 62 71 59 53 61 70 78
77 90 100 98 99 100 98 96 86 94 78 76 83 98 96 94 88 91 75 74 72 56 59 54 64 64 54 59 54 64 73 59 55 59 61 59 70 74 84 74 73 76 62 58 68 86 66
74 95 97 100 99 100 100 92 72 84 75 91 85 87 72 95 96 87 69 66 72 70 56 53 56 67 54 63 59 69 61 68 62 60 57 66 79 72 62 64 64 62 60 63 71 65 72
74 93 98 99 99 100 99 88 67 79 83 99 91 86 78 85 75 78 69 64 67 72 65 59 58 61 61 74 74 66 58 55 60 63 60 66 88 70 85 56 59 66 61 58 61 62 62
74 95 98 97 98 100 97 89 77 92 98 90 70 63 75 79 79 78 77 60 70 70 62 63 59 75 82 73 58 55 55 58 57 68 71 72 82 92 86 58 57 69 61 56 55 51 57
78 98 91 95 96 100 97 89 83 89 86 61 54 69 78 85 77 75 63 67 72 64 71 63 63 70 66 55 56 50 55 57 59 56 57 75 78 92 89 71 76 52 44 45 66 67 65
78 99 96 94 100 99 100 85 90 86 77 57 55 66 75 84 72 59 63 79 74 70 67 66 63 62 60 62 69 73 71 62 63 62 56 65 80 88 91 90 60 58 53 53 59 76 60
85 99 93 99 98 99 100 89 95 71 59 69 59 54 72 72 77 70 73 76 87 81 71 60 53 58 64 75 74 80 87 67 80 71 54 54 58 75 79 81 71 61 54 50 48 90 55
83 92 95 98 79 99 96 92 96 69 72 58 55 54 59 83 80 70 78 78 66 73 82 64 60 65 63 83 82 80 85 60 82 81 77 75 73 80 83 87 72 55 53 52 72 79 68
88 89 93 99 95 99 97 90 94 87 90 58 58 59 59 92 86 76 74 74 67 73 80 66 70 70 80 77 82 83 77 67 69 72 70 76 82 84 84 90 91 50 55 68 69 69 77
96 89 90 97 97 99 91 92 72 87 93 57 61 58 55 83 81 66 68 68 68 68 76 76 73 79 83 80 79 82 78 77 72 82 58 76 70 80 74 78 56 57 79 77 75 79 77

GFSGBSN_925_rhum_069.txt.gz
RH
98 97 98 99 96 91 79 80 90 98 100 100 98 89 94 97 94 90 94 93 87 81 94 94 90 85 73 87 85 55 61 53 59 75 79 81 89 89 87 81 83 81 75 74 75 84 82
100 100 98 98 98 99 96 89 78 94 100 100 99 91 94 94 93 93 90 93 88 83 93 96 92 84 81 98 51 53 55 52 54 61 81 86 85 90 92 85 77 69 74 76 81 89 88
88 90 96 100 98 97 99 98 95 90 100 100 99 96 90 91 92 88 87 89 91 86 89 96 91 85 83 78 49 52 52 55 57 65 83 86 85 93 93 87 70 79 87 90 87 87 88
82 86 88 92 97 98 97 99 98 98 99 100 100 97 89 84 87 84 84 87 89 89 93 95 90 84 92 52 53 54 50 52 61 66 72 77 87 85 97 89 78 85 92 96 88 82 86
72 74 76 83 91 95 99 98 98 99 99 100 99 99 89 88 87 83 77 73 87 90 92 95 88 83 89 54 57 57 67 67 66 71 74 77 82 89 91 94 91 88 100 95 92 80 90
75 80 80 74 80 88 96 96 92 94 100 100 99 98 88 85 78 81 70 68 75 82 80 86 82 81 58 58 64 65 70 70 70 74 77 84 88 88 90 93 97 93 97 90 94 93 90
78 72 82 86 81 81 84 90 89 97 100 100 100 94 88 82 78 87 65 79 80 79 74 74 65 64 53 69 68 70 69 70 70 81 92 86 99 94 85 91 90 77 96 96 88 88 86
67 68 71 77 89 79 85 91 90 88 99 100 98 93 90 75 86 90 73 89 66 65 75 67 62 55 49 70 83 69 67 80 84 88 92 96 100 82 80 82 87 78 94 98 88 88 78
65 67 67 72 78 84 84 89 93 95 97 100 98 92 89 74 90 87 76 78 67 67 86 69 56 56 62 61 72 78 70 81 88 96 92 82 84 81 82 90 95 71 91 96 94 88 84
60 62 64 65 81 80 94 92 94 88 92 100 96 90 84 76 86 81 79 68 65 68 86 57 65 60 70 72 90 83 78 87 91 93 85 81 78 83 90 100 72 72 60 66 82 78 94
63 62 62 64 77 84 85 96 97 89 89 100 95 90 82 77 83 86 66 65 66 59 62 39 62 49 72 83 84 92 81 86 95 96 89 95 89 84 97 94 62 78 69 62 68 87 88
78 70 67 68 72 86 88 99 100 91 99 100 94 88 89 93 83 78 69 66 66 82 54 76 64 63 82 84 89 87 92 92 86 87 85 91 83 84 89 71 68 68 83 90 86 97 98
77 78 76 74 72 90 94 99 96 90 99 99 90 83 95 82 76 76 67 77 84 80 62 59 65 56 72 82 81 88 84 93 97 98 93 97 93 83 91 76 71 68 71 98 97 98 97
81 79 79 81 81 81 94 96 96 100 100 94 85 92 88 77 76 70 71 77 75 62 85 53 59 58 78 74 77 78 78 93 83 86 100 95 99 96 76 79 83 72 64 86 88 95 90
82 78 78 84 83 77 88 98 100 96 100 91 96 98 88 86 76 71 87 99 78 80 65 67 59 74 75 65 77 78 82 91 83 71 98 99 98 87 78 70 67 85 77 54 72 65 77
83 81 78 84 79 80 80 99 91 100 95 99 95 93 90 84 74 80 94 90 82 62 65 58 72 66 75 69 75 80 81 64 70 69 68 79 98 82 81 61 54 54 50 67 81 74 66
83 81 79 79 80 80 83 86 97 96 97 94 88 93 93 80 77 94 96 89 78 70 65 60 70 68 64 66 71 86 82 64 65 67 65 73 78 83 74 90 88 62 64 66 69 75 78
81 82 82 80 81 80 90 83 100 94 96 93 94 97 94 83 98 92 97 77 66 77 68 75 71 74 61 54 74 85 81 76 61 63 74 69 83 87 89 72 73 73 63 61 76 70 80
76 83 83 80 81 81 97 92 100 94 97 96 98 97 97 89 99 96 73 72 66 76 80 79 75 70 66 61 80 76 76 66 63 67 69 60 85 92 76 64 64 72 62 62 67 74 78
79 85 83 81 79 82 95 96 99 98 99 93 96 97 99 99 93 85 79 82 79 68 73 72 66 65 64 64 71 74 77 72 61 64 67 61 78 71 85 68 72 78 68 62 67 82 73
83 85 82 81 81 78 98 86 96 88 94 99 81 87 75 97 99 93 78 74 80 79 60 68 67 64 60 67 71 74 70 70 66 69 65 63 82 78 73 70 68 68 69 67 73 59 66
84 89 87 85 86 80 99 91 79 80 86 99 97 92 83 82 90 92 85 81 75 73 64 64 66 61 60 66 63 73 65 68 69 67 69 73 94 72 85 64 63 68 64 65 66 62 61
85 87 89 88 87 84 98 92 96 99 87 99 91 75 81 82 96 94 87 80 73 73 67 64 64 75 74 68 62 59 63 69 66 67 77 75 84 86 89 71 58 71 57 61 64 76 67
88 91 91 88 82 94 89 99 80 83 100 87 78 80 84 95 91 89 74 68 80 67 75 72 66 68 68 62 58 56 62 66 64 66 70 77 84 87 89 68 75 52 56 59 76 70 67
92 90 90 88 82 94 86 91 93 93 100 81 72 77 83 97 84 75 75 82 73 73 72 73 72 70 66 58 73 75 80 66 67 68 76 73 82 92 83 86 61 60 65 67 68 74 63
87 90 88 89 85 92 98 100 99 99 92 76 67 72 76 80 86 84 77 73 83 82 76 70 66 68 69 80 76 82 92 76 83 70 61 65 70 79 84 85 81 56 60 54 56 78 72
89 91 91 86 85 94 98 92 96 98 92 100 62 63 66 91 92 84 80 76 75 80 87 76 70 68 68 85 84 84 87 70 88 84 78 77 80 83 84 89 74 57 51 54 67 60 76
89 91 92 81 81 97 96 76 89 88 98 98 63 58 63 96 89 82 78 71 76 77 82 75 73 72 86 81 83 86 80 78 79 74 75 80 86 86 86 89 85 54 57 68 70 80 78
86 92 90 73 84 98 95 89 87 93 97 85 55 59 58 85 83 72 69 70 71 69 82 84 74 81 84 87 87 88 84 82 82 88 71 77 71 78 79 78 76 82 70 76 75 80 78

GFSGBSN_925_rhum_072.txt.gz
RH
90 92 93 97 99 100 99 98 95 96 94 94 97 100 97 93 88 97 92 94 94 89 83 93 91 90 72 90 86 53 68 57 59 73 80 83 83 84 84 83 73 93 75 64 61 63 78
80 82 84 86 88 94 99 100 99 98 98 98 100 100 98 96 90 97 93 90 94 90 86 91 94 87 81 94 48 54 60 56 53 64 78 86 78 86 84 81 78 81 74 65 69 64 73
71 74 78 80 79 83 92 97 97 92 98 93 99 100 99 94 90 95 94 88 87 90 88 92 95 85 88 75 42 51 54 54 57 64 78 78 79 91 89 88 72 63 85 84 72 71 75
83 84 81 77 80 81 79 87 90 92 97 99 96 100 100 92 86 96 94 92 92 90 91 95 94 85 91 41 57 55 54 56 54 65 69 71 77 90 92 84 87 90 81 95 70 82 96
64 67 67 78 82 80 79 78 82 90 91 90 97 100 99 90 88 95 82 79 88 89 93 96 89 83 91 52 60 58 61 68 67 70 70 75 78 89 83 92 96 88 95 100 91 83 90
69 68 70 70 72 75 82 78 81 85 92 91 95 100 99 82 83 92 77 82 75 95 89 90 84 86 60 55 61 64 64 73 74 72 76 82 90 95 92 97 96 95 98 95 98 89 86
70 69 68 70 72 74 73 82 82 86 86 91 89 100 100 76 89 83 83 83 85 82 78 72 74 71 57 63 69 68 68 72 71 75 87 84 100 100 96 100 76 73 79 100 95 87 86
67 68 68 67 66 68 71 78 88 82 87 93 84 100 99 92 87 93 85 92 68 62 72 70 68 64 55 64 77 70 70 84 82 91 89 98 100 85 86 88 78 74 83 93 87 87 82
65 70 76 74 67 66 68 71 83 88 91 87 90 100 96 90 95 93 82 78 68 66 81 69 64 59 65 71 76 76 72 80 89 94 98 100 93 78 79 86 86 84 89 96 99 88 85
68 79 82 77 75 69 68 71 83 84 93 93 96 100 94 91 96 85 81 69 67 66 86 55 64 62 72 75 88 78 88 82 91 94 95 91 81 77 88 97 87 89 74 78 94 83 97
74 82 82 70 77 75 78 77 81 87 90 96 93 96 90 77 83 86 66 67 62 56 63 32 57 52 75 81 85 90 86 88 91 88 95 97 89 89 94 96 88 92 69 75 78 87 89
80 85 84 79 78 78 80 84 84 91 88 87 95 100 90 99 94 79 68 66 67 79 55 67 65 68 82 82 88 81 89 87 80 89 88 88 80 88 89 89 87 75 84 86 92 92 95
80 85 84 82 80 80 82 86 86 95 94 90 98 99 97 93 88 76 69 73 83 80 59 62 68 62 76 83 86 91 90 97 99 97 99 95 93 88 89 90 72 78 86 98 98 98 97
74 84 84 82 82 80 82 84 84 93 96 99 100 96 96 88 84 72 72 75 85 60 78 51 61 62 77 73 90 89 94 95 81 85 99 92 96 92 82 81 90 75 67 86 90 96 97
78 82 81 78 80 82 84 84 83 94 100 97 99 100 99 90 81 72 84 94 78 77 67 71 65 73 73 67 77 93 86 98 81 74 98 99 98 89 88 71 64 75 79 58 74 68 93
83 84 80 82 80 85 84 83 86 97 95 100 98 95 92 92 81 76 91 84 81 64 64 58 67 65 75 72 77 78 86 68 76 75 72 89 97 91 76 60 58 60 52 67 81 76 79
92 82 81 85 84 87 84 85 99 99 100 97 89 96 97 83 78 91 98 90 80 67 63 60 72 70 69 68 77 86 84 66 67 68 67 71 78 95 76 87 80 62 66 66 70 78 76
87 87 84 87 85 89 82 85 95 100 86 86 92 100 99 87 97 90 94 85 71 79 69 77 68 71 63 61 81 88 86 78 68 65 75 71 81 96 90 74 74 77 66 58 79 69 78
86 88 87 82 87 89 87 84 93 99 89 89 97 98 100 97 98 96 86 75 70 74 77 76 74 69 69 66 85 79 80 68 65 67 67 62 84 91 76 65 63 72 65 67 67 74 77
93 89 91 86 86 89 89 87 94 99 95 87 96 99 98 98 91 86 86 83 81 69 79 71 66 66 65 68 72 83 81 72 63 69 68 62 79 69 80 64 71 77 69 62 64 79 75
89 91 89 83 89 89 89 94 96 98 87 85 96 98 88 98 96 95 76 78 84 83 66 70 70 65 61 73 67 80 77 71 63 70 67 65 85 81 75 73 70 71 72 67 73 60 63
88 95 92 92 90 91 85 96 99 94 86 90 95 95 80 68 90 90 81 77 79 77 72 70 70 68 59 67 60 65 71 70 74 67 73 74 94 72 83 67 64 71 67 72 65 63 62
95 90 94 92 91 91 83 96 92 99 99 99 99 83 75 77 95 91 84 76 75 71 72 66 68 72 69 67 62 69 76 78 73 69 78 76 83 86 86 72 59 70 58 64 71 75 67
92 93 90 90 90 91 88 97 99 92 99 93 97 81 82 85 93 89 80 71 80 67 78 75 66 68 69 62 62 58 64 67 67 76 73 77 82 87 89 68 79 54 64 60 69 71 68
94 95 92 91 92 87 96 100 99 77 95 85 80 80 85 83 88 78 80 86 77 76 77 76 78 74 66 62 73 77 82 70 71 75 78 72 80 92 84 86 60 60 72 73 66 67 65
93 96 92 92 93 96 99 80 94 86 90 71 71 73 87 88 84 94 78 73 84 82 80 77 68 70 67 80 75 81 92 75 84 72 62 67 73 80 83 82 72 56 62 56 56 72 70
93 95 88 94 90 92 96 92 99 99 94 87 64 65 73 95 94 90 80 80 76 82 90 79 71 69 67 83 85 85 89 72 86 85 79 81 83 84 85 88 72 56 54 55 66 59 74
96 90 92 95 91 80 100 97 90 94 80 86 63 64 68 96 88 80 77 76 75 79 82 76 74 73 84 81 82 86 81 81 79 73 75 80 87 87 88 88 79 67 58 63 66 78 77
96 94 96 90 58 97 95 85 92 89 92 83 56 57 61 85 83 73 72 71 75 72 86 84 73 80 83 87 87 89 82 84 82 82 73 77 71 77 77 76 73 80 75 74 76 80 77

GFSGBSN_925_rhum_075.txt.gz
RH
78 75 78 82 85 85 85 91 94 98 98 100 98 97 97 100 98 93 86 94 91 91 90 84 91 92 66 87 80 43 57 67 55 70 74 81 84 78 85 74 76 84 69 66 61 58 60
76 79 82 81 80 82 84 84 86 90 95 97 100 94 100 100 98 92 82 95 90 94 91 87 92 91 80 72 41 55 58 64 57 70 78 85 80 73 85 85 79 68 70 73 68 61 63
72 77 73 67 70 76 75 78 77 78 82 87 96 90 94 100 97 82 82 95 89 88 92 88 93 88 89 58 39 48 52 56 54 60 73 74 78 79 76 94 66 69 80 74 72 68 66
75 68 74 69 73 76 68 77 82 80 80 82 95 96 99 100 97 75 86 94 93 91 90 90 97 85 80 38 56 57 56 56 57 58 70 68 75 80 80 78 89 85 77 90 70 71 60
73 78 79 74 71 70 74 69 77 80 81 82 84 98 96 100 93 83 92 89 81 90 89 93 91 81 75 53 57 57 60 66 68 68 72 70 76 82 68 99 100 87 96 92 90 65 78
64 75 74 67 79 70 66 67 68 79 80 84 89 96 89 100 92 81 91 83 81 88 94 89 82 91 59 52 58 62 65 71 78 76 78 86 89 90 96 99 97 97 99 98 86 80 79
66 68 66 79 89 86 81 71 72 71 87 86 88 94 93 100 91 89 84 85 80 81 88 80 71 67 56 58 67 68 68 74 74 81 92 87 99 98 99 97 99 99 93 96 83 73 78
68 76 79 86 87 84 68 73 73 73 78 80 86 96 93 99 92 91 86 90 76 60 74 78 70 72 58 60 72 72 73 83 84 92 88 92 100 83 80 90 98 95 91 94 83 88 83
72 78 84 83 83 76 77 77 77 78 80 85 87 96 90 100 92 98 91 77 76 65 76 69 71 65 62 66 76 78 73 80 87 91 100 100 93 78 85 100 98 79 80 94 99 94 86
62 76 84 87 82 80 79 80 80 79 83 84 91 93 89 100 97 93 96 62 78 66 85 59 70 62 71 75 89 78 87 78 89 95 97 98 79 78 89 94 85 88 72 77 85 97 96
61 70 72 82 82 79 81 80 80 82 85 86 88 94 90 100 86 88 78 70 72 57 82 35 61 57 78 80 84 89 87 94 92 89 97 96 90 85 93 89 85 92 70 77 77 85 92
71 72 73 80 83 81 83 82 82 85 85 85 93 86 92 100 93 86 84 72 64 82 75 64 72 77 85 80 87 81 85 86 80 94 89 87 78 89 90 84 85 77 78 84 88 88 91
67 69 76 82 80 79 80 83 84 85 84 84 80 93 99 100 95 84 86 67 89 92 60 74 75 74 81 82 84 89 97 94 90 92 98 86 88 91 93 95 81 75 84 99 96 94 96
65 72 81 87 78 77 82 84 87 88 85 98 87 88 99 88 81 87 70 83 95 62 76 54 64 68 76 76 96 94 96 99 86 92 94 92 91 95 91 89 94 85 80 84 91 92 98
71 79 86 88 82 83 87 87 88 91 99 96 100 99 99 92 86 88 83 98 83 73 65 72 70 72 75 71 95 98 100 86 77 76 90 99 100 86 89 74 67 71 77 57 90 94 93
76 87 92 88 87 87 89 87 87 94 98 85 97 92 96 87 100 85 91 88 78 60 64 60 71 65 79 74 82 87 89 72 93 76 74 92 97 87 76 65 57 58 53 65 80 90 94
89 90 88 89 85 91 90 89 90 93 99 86 87 96 98 99 94 88 98 92 80 64 62 60 72 77 70 72 79 85 82 72 70 70 69 72 78 90 75 93 88 66 65 68 69 73 73
97 94 91 89 90 92 91 91 88 92 97 81 94 99 100 94 98 90 98 84 73 79 70 75 70 69 62 66 86 90 86 81 74 67 76 72 80 94 91 74 75 80 68 57 71 67 69
87 90 92 92 92 94 93 95 89 98 90 88 98 98 100 92 100 98 85 79 72 75 73 70 77 68 66 73 85 82 82 69 68 71 68 62 83 91 79 64 62 74 68 68 67 69 72
87 91 93 90 92 90 91 91 81 99 82 85 96 99 98 98 89 87 96 80 82 70 78 68 74 67 65 73 73 85 82 72 67 73 67 61 82 70 82 68 71 74 71 65 62 70 66
93 92 91 92 91 92 93 87 93 94 84 82 98 100 94 99 95 94 88 76 84 82 76 69 71 64 64 73 67 85 78 70 62 71 69 67 86 81 75 74 73 73 72 67 70 59 58
86 92 90 91 92 93 94 85 95 94 87 86 97 99 94 76 87 96 85 76 82 76 75 74 79 68 60 65 60 70 71 70 78 69 75 74 92 73 83 65 65 74 72 70 65 63 61
89 92 91 94 94 92 92 84 92 93 98 91 99 89 82 84 91 95 82 75 75 75 76 72 72 72 74 70 62 70 78 81 78 72 76 76 82 86 86 71 58 71 64 71 72 74 65
92 89 89 93 92 95 92 86 99 98 94 88 91 83 74 96 86 85 75 74 73 75 82 77 70 69 71 67 65 59 66 70 73 81 75 76 79 85 88 69 79 56 68 63 66 70 69
93 90 91 94 93 94 78 100 92 94 82 78 70 77 77 85 88 80 77 81 74 78 82 85 84 78 67 62 74 77 80 66 74 76 78 73 77 88 82 85 56 60 68 67 64 64 66
91 89 95 91 91 87 84 99 96 99 80 76 62 76 76 87 89 92 80 74 83 84 85 81 70 71 67 78 73 79 89 77 83 74 62 67 74 75 79 78 61 54 61 57 57 61 66
89 94 94 95 96 90 95 99 99 92 79 64 65 70 72 92 88 86 83 80 78 83 92 81 72 68 65 82 84 84 89 74 83 84 82 84 85 84 86 84 69 56 56 56 62 52 72
88 94 95 95 95 88 98 92 84 75 82 60 67 66 68 96 84 79 80 81 75 79 84 76 74 73 83 80 80 86 82 82 79 73 76 80 86 86 86 84 66 64 61 61 62 77 75
96 94 95 92 83 92 100 95 93 85 81 67 56 60 60 86 81 73 74 75 78 75 87 84 73 79 83 88 88 88 80 85 82 75 75 77 72 75 75 72 66 70 70 72 76 77 77

GFSGBSN_925_rhum_078.txt.gz
RH
78 76 76 77 74 73 81 74 83 83 80 86 89 96 97 88 88 100 97 91 94 90 94 87 87 90 72 61 48 52 60 70 71 68 54 50 57 55 58 44 50 60 52 44 37 43 46
78 79 83 82 80 77 77 73 71 89 81 79 80 84 99 88 90 100 98 78 91 90 95 90 87 92 69 75 39 55 56 71 62 65 58 55 50 52 60 58 60 45 51 51 47 48 50
77 76 79 81 80 80 78 79 77 72 80 80 79 80 96 100 100 100 92 89 93 88 92 91 88 90 74 63 41 56 51 59 59 57 53 54 54 59 54 64 51 72 79 61 52 48 56
75 76 78 79 76 77 82 72 70 76 67 81 80 84 89 95 100 99 86 84 89 92 82 90 95 85 69 43 55 49 57 55 58 59 61 57 60 60 66 57 68 78 79 96 51 49 45
76 77 77 77 75 77 88 81 78 78 74 78 80 83 87 89 100 96 87 93 91 88 89 94 84 72 56 53 58 58 60 55 60 62 66 64 64 68 63 86 97 93 97 87 57 42 46
74 66 76 70 87 87 89 84 78 81 73 71 82 85 88 96 100 93 93 85 88 88 91 84 79 67 52 42 51 62 68 69 61 61 63 67 76 77 75 96 92 100 83 68 61 46 49
66 77 73 81 88 89 89 78 78 82 84 84 88 87 93 99 100 93 90 93 80 77 76 57 57 54 46 50 65 60 68 70 64 65 68 68 86 86 64 93 95 100 98 90 58 69 54
74 72 73 73 81 87 90 84 83 79 78 78 83 88 84 96 100 88 79 90 67 59 63 65 64 60 57 53 59 60 71 69 66 67 72 77 85 57 74 86 96 100 97 97 92 72 57
75 72 75 76 78 87 88 86 84 84 80 82 82 90 87 91 99 96 85 81 75 68 59 64 61 58 52 57 63 63 65 66 70 69 76 96 67 72 93 99 100 98 86 82 98 84 76
77 68 77 79 81 83 88 88 87 86 85 88 89 83 88 92 100 98 91 69 67 62 84 65 70 57 64 62 78 61 72 69 75 76 75 90 77 83 94 100 88 89 68 92 96 99 98
84 62 65 74 79 84 81 90 89 85 87 91 93 87 91 92 99 90 66 61 70 60 85 56 67 59 63 72 75 78 78 80 95 86 98 98 87 82 83 98 79 78 80 82 87 69 82
65 64 71 75 85 91 92 86 89 86 86 89 92 94 94 94 99 82 65 67 64 82 84 70 64 72 86 78 76 74 77 77 75 96 96 83 66 78 79 76 81 80 67 73 69 67 91
73 71 76 87 87 88 92 92 87 86 90 90 89 91 92 99 89 80 84 76 90 88 58 77 73 70 71 74 79 84 92 80 95 98 99 73 94 85 86 93 89 85 66 93 86 91 95
77 75 85 92 96 91 90 87 88 88 89 94 96 100 95 100 86 92 89 82 92 67 72 54 57 63 70 73 81 79 79 81 74 76 79 93 100 98 84 87 85 71 68 64 69 87 96
79 82 96 92 91 90 88 90 89 91 90 99 100 100 99 100 94 90 87 95 82 75 51 59 62 65 68 71 77 92 94 75 74 77 93 99 100 92 82 68 64 64 67 49 71 78 62
80 85 87 90 94 91 92 92 93 90 99 94 90 93 97 100 99 92 98 89 73 52 55 52 60 56 63 68 66 77 86 85 92 78 70 72 93 70 66 61 53 50 43 59 66 73 78
81 81 88 86 93 92 94 94 92 93 98 82 80 97 100 99 92 95 98 88 72 54 55 54 57 58 56 63 63 68 95 92 72 63 61 63 63 70 62 74 76 55 51 51 48 58 52
80 86 88 92 91 92 95 96 83 96 92 84 90 99 97 97 99 98 86 74 65 65 63 60 56 52 52 60 69 70 77 79 58 60 64 58 59 81 71 58 60 66 54 43 45 55 54
80 86 84 89 88 87 94 86 96 91 88 91 98 97 99 90 98 95 78 73 62 63 62 60 63 56 51 63 70 69 72 60 59 62 59 52 63 80 67 54 54 56 52 48 46 47 54
87 90 90 88 90 90 94 66 99 89 87 85 94 100 98 95 88 62 94 68 65 65 64 60 64 53 54 60 62 73 68 61 58 63 65 50 58 66 59 68 63 58 54 50 46 53 40
89 89 91 89 93 95 94 72 99 84 83 79 96 99 92 100 93 83 87 63 64 65 66 57 56 51 51 61 63 69 64 57 55 60 54 51 78 73 58 59 61 61 61 54 60 47 44
88 91 89 88 91 94 95 93 92 91 91 89 97 94 88 72 77 97 79 61 63 71 67 60 57 55 48 53 52 62 57 56 64 52 57 54 79 65 75 49 54 62 61 57 53 52 48
91 90 90 91 89 94 92 87 97 92 84 91 96 91 69 75 76 93 79 64 65 62 64 62 52 53 60 63 55 56 53 57 59 58 57 58 67 75 75 53 50 50 56 59 61 57 49
90 87 92 90 93 94 88 98 95 83 76 81 85 73 60 80 64 94 74 62 68 69 66 67 58 55 63 52 50 45 46 48 48 52 52 56 61 70 75 56 63 48 54 58 55 58 56
93 90 91 92 95 91 80 92 94 83 74 65 70 71 58 77 71 79 69 68 63 64 74 77 72 63 51 51 54 58 56 53 57 55 51 48 50 62 61 56 47 51 57 55 54 52 54
91 91 94 95 86 75 96 86 94 76 66 56 67 71 61 61 83 84 72 61 61 66 70 72 63 62 56 52 51 63 62 66 66 61 53 51 47 47 53 54 41 46 53 51 55 45 53
93 96 94 94 84 92 95 95 94 79 70 55 66 63 64 75 76 78 74 72 66 66 72 69 65 60 56 56 59 61 66 64 59 64 67 63 61 62 60 57 48 45 51 51 52 44 53
95 96 95 89 77 97 90 92 89 76 64 55 70 64 65 69 73 72 72 71 64 64 60 66 62 58 59 61 59 65 58 63 61 62 63 62 61 61 63 64 50 50 55 53 48 57 53
96 96 93 85 76 100 89 81 78 80 67 55 66 60 59 64 69 72 76 79 80 72 67 67 61 66 62 58 62 61 60 64 61 52 63 62 54 49 52 44 49 52 54 56 54 51 59